TAP1550 GVAC-LPPT

Flight info

Callsign TAP1550
Flight time N/A
Altitude 35000
Route DIMKI1A DIMKI DCT IPERA N873 LIMAL DCT UDATI DCT ODEGI DCT LOMAS DCT GDV DCT VASTO DCT BAROK DCT VATZI
Aircraft A320/M-SDE3FGHIRWY/LB1

Departure

Time 2026-04-21 09:01
Airport Amílcar Cabral International Airport (GVAC)

Arrival

Time N/A
Airport Lisbon Humberto Delgado Airport (LPPT)
Time Latitude Longitude Altitude Speed Heading
2026-04-21 08:46 16.73300 -22.94501 209 ft 0 kts 90°
2026-04-21 08:56 16.73319 -22.94485 211 ft 3 kts 10°
2026-04-21 08:57 16.73341 -22.94534 203 ft 18 kts 243°
2026-04-21 08:57 16.73244 -22.94559 204 ft 13 kts 184°
2026-04-21 08:57 16.73161 -22.94562 205 ft 11 kts 180°
2026-04-21 08:57 16.73084 -22.94597 210 ft 19 kts 228°
2026-04-21 08:58 16.72991 -22.94690 205 ft 17 kts 179°
2026-04-21 08:58 16.72856 -22.94689 196 ft 20 kts 180°
2026-04-21 08:58 16.72721 -22.94688 200 ft 19 kts 179°
2026-04-21 08:58 16.72591 -22.94687 188 ft 19 kts 179°
2026-04-21 08:59 16.72463 -22.94685 182 ft 18 kts 179°
2026-04-21 08:59 16.72406 -22.94761 190 ft 14 kts 270°
2026-04-21 08:59 16.72406 -22.94847 186 ft 10 kts 270°
2026-04-21 08:59 16.72434 -22.94899 187 ft 9 kts 352°
2026-04-21 09:00 16.72499 -22.94890 187 ft 11 kts 358°
2026-04-21 09:00 16.72674 -22.94900 195 ft 55 kts
2026-04-21 09:00 16.73274 -22.94893 195 ft 115 kts
2026-04-21 09:00 16.74241 -22.94892 217 ft 158 kts 360°
2026-04-21 09:01 16.75323 -22.94909 771 ft 157 kts
2026-04-21 09:01 16.76440 -22.94916 1323 ft 164 kts
2026-04-21 09:01 16.77622 -22.94913 1700 ft 180 kts
2026-04-21 09:01 16.78952 -22.94920 1900 ft 203 kts
2026-04-21 09:02 16.79926 -22.94928 2102 ft 219 kts
2026-04-21 09:02 16.81528 -22.94940 2503 ft 239 kts
2026-04-21 09:02 16.83220 -22.94954 3220 ft 246 kts 359°
2026-04-21 09:03 16.86766 -22.94987 4528 ft 265 kts 357°
2026-04-21 09:03 16.88635 -22.95007 5152 ft 272 kts 356°
2026-04-21 09:03 16.90550 -22.94991 5810 ft 279 kts
2026-04-21 09:03 16.92468 -22.94533 6505 ft 289 kts 18°
2026-04-21 09:04 16.94259 -22.93503 7202 ft 299 kts 32°
2026-04-21 09:04 16.95977 -22.92253 7863 ft 304 kts 31°
2026-04-21 09:04 16.97726 -22.90987 8506 ft 308 kts 31°
2026-04-21 09:04 16.99504 -22.89703 9158 ft 313 kts 31°
2026-04-21 09:05 17.01308 -22.88401 9815 ft 317 kts 31°
2026-04-21 09:05 17.03135 -22.87085 10374 ft 324 kts 31°
2026-04-21 09:05 17.05060 -22.85703 10523 ft 347 kts 31°
2026-04-21 09:05 17.07109 -22.84232 10652 ft 368 kts 31°
2026-04-21 09:06 17.09261 -22.82682 10993 ft 381 kts 31°
2026-04-21 09:06 17.11454 -22.81098 11534 ft 385 kts 31°
2026-04-21 09:06 17.13664 -22.79495 12082 ft 388 kts 31°
2026-04-21 09:06 17.15890 -22.77881 12651 ft 391 kts 32°
2026-04-21 09:07 17.18131 -22.76256 13197 ft 394 kts 32°
2026-04-21 09:07 17.20392 -22.74615 13747 ft 397 kts 32°
2026-04-21 09:07 17.22667 -22.72965 14250 ft 399 kts 31°
2026-04-21 09:07 17.24955 -22.71307 14742 ft 401 kts 31°
2026-04-21 09:08 17.27256 -22.69641 15242 ft 403 kts 31°
2026-04-21 09:08 17.29565 -22.67967 15730 ft 405 kts 31°
2026-04-21 09:08 17.31888 -22.66284 16213 ft 407 kts 31°
2026-04-21 09:08 17.34221 -22.64595 16687 ft 409 kts 31°
2026-04-21 09:09 17.36566 -22.62896 17154 ft 411 kts 31°
2026-04-21 09:09 17.38921 -22.61187 17621 ft 413 kts 31°
2026-04-21 09:09 17.41286 -22.59466 18074 ft 415 kts 32°
2026-04-21 09:09 17.43660 -22.57736 18503 ft 417 kts 31°
2026-04-21 09:10 17.46050 -22.56002 18869 ft 419 kts 31°
2026-04-21 09:10 17.48452 -22.54261 19240 ft 421 kts 31°
2026-04-21 09:10 17.50863 -22.52515 19610 ft 422 kts 31°
2026-04-21 09:10 17.53282 -22.50762 19984 ft 424 kts 30°
2026-04-21 09:11 17.55710 -22.48997 20355 ft 425 kts 30°
2026-04-21 09:11 17.58143 -22.47225 20711 ft 427 kts 30°
2026-04-21 09:11 17.60586 -22.45445 21060 ft 428 kts 30°
2026-04-21 09:11 17.63036 -22.43660 21397 ft 430 kts 30°
2026-04-21 09:12 17.65497 -22.41866 21732 ft 432 kts 29°
2026-04-21 09:12 17.67965 -22.40067 22061 ft 433 kts 29°
2026-04-21 09:12 17.70445 -22.38263 22387 ft 435 kts 29°
2026-04-21 09:12 17.72932 -22.36452 22708 ft 436 kts 29°
2026-04-21 09:13 17.75426 -22.34633 23017 ft 438 kts 28°
2026-04-21 09:13 17.77931 -22.32807 23320 ft 439 kts 28°
2026-04-21 09:13 17.80445 -22.30976 23619 ft 441 kts 28°
2026-04-21 09:13 17.82967 -22.29136 23853 ft 442 kts 28°
2026-04-21 09:14 17.85498 -22.27288 24081 ft 444 kts 28°
2026-04-21 09:14 17.88038 -22.25435 24310 ft 446 kts 28°
2026-04-21 09:14 17.90614 -22.23622 24534 ft 445 kts 26°
2026-04-21 09:14 17.93250 -22.21922 24758 ft 445 kts 24°
2026-04-21 09:15 17.95932 -22.20299 24971 ft 445 kts 22°
2026-04-21 09:15 17.98640 -22.18706 25181 ft 447 kts 22°
2026-04-21 09:15 18.01354 -22.17110 25394 ft 448 kts 22°
2026-04-21 09:15 18.04072 -22.15493 25604 ft 450 kts 22°
2026-04-21 09:16 18.06790 -22.13844 25813 ft 452 kts 23°
2026-04-21 09:16 18.09511 -22.12172 26020 ft 454 kts 23°
2026-04-21 09:16 18.12234 -22.10482 26235 ft 455 kts 23°
2026-04-21 09:16 18.14966 -22.08780 26453 ft 457 kts 23°
2026-04-21 09:17 18.17706 -22.07072 26659 ft 459 kts 23°
2026-04-21 09:17 18.20458 -22.05362 26866 ft 460 kts 23°
2026-04-21 09:17 18.23218 -22.03654 27068 ft 461 kts 22°
2026-04-21 09:17 18.25994 -22.01943 27268 ft 463 kts 22°
2026-04-21 09:18 18.28777 -22.00232 27466 ft 464 kts 22°
2026-04-21 09:18 18.31567 -21.98517 27657 ft 465 kts 22°
2026-04-21 09:18 18.34368 -21.96790 27839 ft 467 kts 22°
2026-04-21 09:18 18.37172 -21.95055 28020 ft 468 kts 22°
2026-04-21 09:19 18.39983 -21.93314 28190 ft 470 kts 22°
2026-04-21 09:19 18.42804 -21.91564 28364 ft 471 kts 22°
2026-04-21 09:19 18.45630 -21.89810 28530 ft 472 kts 22°
2026-04-21 09:19 18.48468 -21.88050 28715 ft 474 kts 22°
2026-04-21 09:20 18.51312 -21.86290 28869 ft 475 kts 22°
2026-04-21 09:20 18.54165 -21.84520 29034 ft 477 kts 22°
2026-04-21 09:20 18.57027 -21.82745 29195 ft 478 kts 22°
2026-04-21 09:20 18.59895 -21.80969 29364 ft 479 kts 22°
2026-04-21 09:21 18.62768 -21.79187 29528 ft 480 kts 22°
2026-04-21 09:21 18.65646 -21.77399 29727 ft 480 kts 22°
2026-04-21 09:21 18.68521 -21.75611 29970 ft 479 kts 21°
2026-04-21 09:21 18.71353 -21.73855 30193 ft 478 kts 21°
2026-04-21 09:22 18.74262 -21.72055 30363 ft 479 kts 21°
2026-04-21 09:22 18.77132 -21.70272 30532 ft 479 kts 21°
2026-04-21 09:22 18.80004 -21.68485 30691 ft 480 kts 21°
2026-04-21 09:22 18.82879 -21.66695 30881 ft 480 kts 21°
2026-04-21 09:23 18.85752 -21.64904 31052 ft 480 kts 21°
2026-04-21 09:23 18.88632 -21.63105 31213 ft 481 kts 21°
2026-04-21 09:23 18.91469 -21.61330 31387 ft 481 kts 21°
2026-04-21 09:23 18.94349 -21.59530 31557 ft 481 kts 21°
2026-04-21 09:24 18.97269 -21.57707 31733 ft 481 kts 21°
2026-04-21 09:24 19.00118 -21.55933 31903 ft 482 kts 21°
2026-04-21 09:24 19.03005 -21.54136 32076 ft 482 kts 21°
2026-04-21 09:24 19.05893 -21.52337 32250 ft 482 kts 21°
2026-04-21 09:25 19.08825 -21.50509 32422 ft 483 kts 21°
2026-04-21 09:25 19.11676 -21.48727 32592 ft 483 kts 21°
2026-04-21 09:25 19.14606 -21.46894 32768 ft 483 kts 21°
2026-04-21 09:25 19.17462 -21.45107 32991 ft 483 kts 20°
2026-04-21 09:26 19.20346 -21.43301 33221 ft 482 kts 20°
2026-04-21 09:26 19.23229 -21.41494 33401 ft 482 kts 20°
2026-04-21 09:26 19.26114 -21.39687 33582 ft 482 kts 20°
2026-04-21 09:26 19.28998 -21.37882 33767 ft 482 kts 20°
2026-04-21 09:27 19.31883 -21.36073 33954 ft 482 kts 20°
2026-04-21 09:27 19.34768 -21.34263 34118 ft 482 kts 20°
2026-04-21 09:27 19.37655 -21.32453 34283 ft 482 kts 20°
2026-04-21 09:27 19.40542 -21.30644 34442 ft 482 kts 20°
2026-04-21 09:28 19.43425 -21.28841 34609 ft 482 kts 20°
2026-04-21 09:28 19.46311 -21.27035 34770 ft 481 kts 20°
2026-04-21 09:28 19.49191 -21.25228 34939 ft 481 kts 21°
2026-04-21 09:28 19.52071 -21.23418 35024 ft 481 kts 20°
2026-04-21 09:29 19.57823 -21.19796 35022 ft 480 kts 20°
2026-04-21 09:29 19.63566 -21.16176 35022 ft 480 kts 20°
2026-04-21 09:30 19.69309 -21.12567 35026 ft 480 kts 20°
2026-04-21 09:30 19.75048 -21.08945 35024 ft 480 kts 20°
2026-04-21 09:31 19.80788 -21.05323 35021 ft 480 kts 20°
2026-04-21 09:31 19.86529 -21.01695 35036 ft 480 kts 20°
2026-04-21 09:32 19.92274 -20.98065 35031 ft 480 kts 20°
2026-04-21 09:32 19.98019 -20.94434 35031 ft 481 kts 20°
2026-04-21 09:33 20.03765 -20.90793 35026 ft 481 kts 20°
2026-04-21 09:33 20.09512 -20.87150 35023 ft 481 kts 20°
2026-04-21 09:34 20.15257 -20.83506 35021 ft 481 kts 20°
2026-04-21 09:34 20.20998 -20.79864 35031 ft 480 kts 20°
2026-04-21 09:35 20.26743 -20.76215 35014 ft 481 kts 20°
2026-04-21 09:35 20.32489 -20.72557 35011 ft 481 kts 20°
2026-04-21 09:36 20.38242 -20.68900 35020 ft 482 kts 20°
2026-04-21 09:36 20.43997 -20.65234 35012 ft 482 kts 20°
2026-04-21 09:37 20.49742 -20.61555 35010 ft 482 kts 20°
2026-04-21 09:37 20.55487 -20.57869 35033 ft 482 kts 20°
2026-04-21 09:38 20.61236 -20.54189 35031 ft 482 kts 20°
2026-04-21 09:38 20.66994 -20.50511 35029 ft 482 kts 20°
2026-04-21 09:39 20.72741 -20.46826 35030 ft 482 kts 20°
2026-04-21 09:39 20.78480 -20.43130 35028 ft 482 kts 20°
2026-04-21 09:40 20.84221 -20.39431 35028 ft 482 kts 20°
2026-04-21 09:40 20.89965 -20.35746 35056 ft 481 kts 19°
2026-04-21 09:41 20.95704 -20.32064 35043 ft 481 kts 19°
2026-04-21 09:41 21.01432 -20.28377 35038 ft 480 kts 19°
2026-04-21 09:42 21.07157 -20.24686 35036 ft 480 kts 19°
2026-04-21 09:42 21.12877 -20.20985 35037 ft 480 kts 19°
2026-04-21 09:43 21.18597 -20.17297 35033 ft 480 kts 19°
2026-04-21 09:43 21.24309 -20.13598 35066 ft 479 kts 19°
2026-04-21 09:44 21.30008 -20.09899 35051 ft 478 kts 19°
2026-04-21 09:44 21.34735 -20.06841 35036 ft 477 kts 18°
2026-04-21 09:45 21.40425 -20.03170 35030 ft 477 kts 18°
2026-04-21 09:45 21.46104 -19.99493 35026 ft 477 kts 19°
2026-04-21 09:46 21.51785 -19.95802 35027 ft 477 kts 19°
2026-04-21 09:46 21.57457 -19.92102 35033 ft 476 kts 18°
2026-04-21 09:47 21.63105 -19.88419 35031 ft 475 kts 18°
2026-04-21 09:47 21.68755 -19.84747 35028 ft 474 kts 18°
2026-04-21 09:48 21.74403 -19.81071 35026 ft 475 kts 18°
2026-04-21 09:48 21.80051 -19.77385 35034 ft 475 kts 18°
2026-04-21 09:49 21.85692 -19.73693 35029 ft 475 kts 18°
2026-04-21 09:49 21.91335 -19.70003 35018 ft 473 kts 17°
2026-04-21 09:50 21.96007 -19.66948 35022 ft 473 kts 17°
2026-04-21 09:50 22.02582 -19.62647 35025 ft 473 kts 17°
2026-04-21 09:51 22.08205 -19.58957 35019 ft 473 kts 17°
2026-04-21 09:51 22.13826 -19.55270 35020 ft 473 kts 17°
2026-04-21 09:52 22.19445 -19.51583 35022 ft 473 kts 17°
2026-04-21 09:52 22.25067 -19.47891 35035 ft 472 kts 16°
2026-04-21 09:53 22.30679 -19.44201 35026 ft 472 kts 16°
2026-04-21 09:53 22.36290 -19.40506 35022 ft 472 kts 16°
2026-04-21 09:54 22.41900 -19.36803 35023 ft 473 kts 16°
2026-04-21 09:54 22.47511 -19.33094 35021 ft 473 kts 16°
2026-04-21 09:55 22.53125 -19.29390 35024 ft 473 kts 16°
2026-04-21 09:55 22.58734 -19.25682 35030 ft 471 kts 16°
2026-04-21 09:56 22.64317 -19.21983 35014 ft 470 kts 16°
2026-04-21 09:56 22.69900 -19.18287 35013 ft 471 kts 16°
2026-04-21 09:57 22.75487 -19.14575 35011 ft 471 kts 16°
2026-04-21 09:57 22.81076 -19.10864 35019 ft 471 kts 16°
2026-04-21 09:58 22.86666 -19.07153 35022 ft 471 kts 16°
2026-04-21 09:58 22.92252 -19.03432 35024 ft 470 kts 15°
2026-04-21 09:59 22.97821 -18.99729 35010 ft 469 kts 15°
2026-04-21 09:59 23.03390 -18.96025 35010 ft 470 kts 15°
2026-04-21 10:00 23.08963 -18.92314 35012 ft 470 kts 15°
2026-04-21 10:00 23.14539 -18.88589 35017 ft 471 kts 16°
2026-04-21 10:01 23.20113 -18.84858 35019 ft 471 kts 15°
2026-04-21 10:01 23.25698 -18.81127 35040 ft 471 kts 16°
2026-04-21 10:02 23.34076 -18.75515 35027 ft 472 kts 16°
2026-04-21 10:03 23.39664 -18.71759 35018 ft 472 kts 16°
2026-04-21 10:03 23.45257 -18.68006 35029 ft 472 kts 16°
2026-04-21 10:04 23.50851 -18.64256 35019 ft 472 kts 16°
2026-04-21 10:04 23.56442 -18.60492 35020 ft 473 kts 16°
2026-04-21 10:05 23.62034 -18.56723 35027 ft 473 kts 16°
2026-04-21 10:05 23.67624 -18.52943 35024 ft 473 kts 16°
2026-04-21 10:06 23.73215 -18.49166 35022 ft 472 kts 16°
2026-04-21 10:06 23.78806 -18.45400 35018 ft 472 kts 16°
2026-04-21 10:07 23.84403 -18.41624 35031 ft 473 kts 17°
2026-04-21 10:07 23.89999 -18.37833 35037 ft 473 kts 18°
2026-04-21 10:08 23.95581 -18.34047 35017 ft 472 kts 18°
2026-04-21 10:08 24.01164 -18.30255 35013 ft 472 kts 18°
2026-04-21 10:09 24.06752 -18.26463 35014 ft 473 kts 18°
2026-04-21 10:09 24.12341 -18.22661 35015 ft 473 kts 18°
2026-04-21 10:10 24.17937 -18.18862 35018 ft 473 kts 18°
2026-04-21 10:10 24.23529 -18.15059 35042 ft 473 kts 19°
2026-04-21 10:11 24.29097 -18.11260 35028 ft 471 kts 19°
2026-04-21 10:11 24.34656 -18.07453 35042 ft 471 kts 20°
2026-04-21 10:12 24.40214 -18.03652 35035 ft 471 kts 20°
2026-04-21 10:12 24.45776 -17.99857 35033 ft 470 kts 20°
2026-04-21 10:13 24.51332 -17.96059 35030 ft 471 kts 20°
2026-04-21 10:13 24.56886 -17.92251 35039 ft 469 kts 21°
2026-04-21 10:14 24.62406 -17.88463 35031 ft 467 kts 21°
2026-04-21 10:14 24.67882 -17.84709 35022 ft 467 kts 21°
2026-04-21 10:15 24.73392 -17.80919 35020 ft 467 kts 21°
2026-04-21 10:15 24.78898 -17.77119 35018 ft 467 kts 21°
2026-04-21 10:16 24.84403 -17.73322 35037 ft 467 kts 22°
2026-04-21 10:16 24.89911 -17.69538 35019 ft 466 kts 22°
2026-04-21 10:17 24.95393 -17.65750 35014 ft 465 kts 22°
2026-04-21 10:17 25.00878 -17.61958 35008 ft 465 kts 22°
2026-04-21 10:18 25.06359 -17.58153 35004 ft 466 kts 22°
2026-04-21 10:18 25.11845 -17.54347 35006 ft 466 kts 22°
2026-04-21 10:19 25.17330 -17.50537 35010 ft 466 kts 22°
2026-04-21 10:19 25.22819 -17.46727 35043 ft 466 kts 23°
2026-04-21 10:20 25.28302 -17.42914 35030 ft 466 kts 23°
2026-04-21 10:20 25.33779 -17.39098 35039 ft 465 kts 24°
2026-04-21 10:21 25.39255 -17.35273 35011 ft 466 kts 24°
2026-04-21 10:21 25.44739 -17.31451 35006 ft 466 kts 23°
2026-04-21 10:22 25.50233 -17.27629 35006 ft 466 kts 24°
2026-04-21 10:22 25.55718 -17.23780 35033 ft 467 kts 24°
2026-04-21 10:23 25.61196 -17.19934 35023 ft 466 kts 24°
2026-04-21 10:23 25.66677 -17.16094 35020 ft 466 kts 24°
2026-04-21 10:24 25.72155 -17.12250 35017 ft 466 kts 24°
2026-04-21 10:24 25.77630 -17.08404 35010 ft 466 kts 24°
2026-04-21 10:25 25.83100 -17.04548 35016 ft 466 kts 24°
2026-04-21 10:25 25.88573 -17.00690 35027 ft 466 kts 25°
2026-04-21 10:26 25.94051 -16.96836 35016 ft 466 kts 25°
2026-04-21 10:26 25.99524 -16.92972 35000 ft 466 kts 25°
2026-04-21 10:27 26.04073 -16.89762 34998 ft 466 kts 25°
2026-04-21 10:27 26.09549 -16.85892 34996 ft 466 kts 25°
2026-04-21 10:28 26.15023 -16.82015 34996 ft 466 kts 25°
2026-04-21 10:28 26.20496 -16.78138 35021 ft 466 kts 26°
2026-04-21 10:29 26.25962 -16.74267 35010 ft 465 kts 25°
2026-04-21 10:29 26.31462 -16.70371 35006 ft 465 kts 25°
2026-04-21 10:30 26.36923 -16.66500 34998 ft 466 kts 26°
2026-04-21 10:30 26.42355 -16.62641 34987 ft 466 kts 26°
2026-04-21 10:31 26.47865 -16.58729 34984 ft 467 kts 26°
2026-04-21 10:31 26.53339 -16.54831 35006 ft 466 kts 26°
2026-04-21 10:32 26.58812 -16.50939 35003 ft 466 kts 26°
2026-04-21 10:32 26.64275 -16.47049 35000 ft 466 kts 26°
2026-04-21 10:33 26.69734 -16.43144 34994 ft 466 kts 26°
2026-04-21 10:33 26.75188 -16.39236 34992 ft 465 kts 26°
2026-04-21 10:34 26.80642 -16.35335 34990 ft 465 kts 26°
2026-04-21 10:34 26.86099 -16.31424 34985 ft 466 kts 26°
2026-04-21 10:35 26.91564 -16.27501 34980 ft 467 kts 26°
2026-04-21 10:35 26.97030 -16.23568 34978 ft 467 kts 27°
2026-04-21 10:36 27.02495 -16.19618 34972 ft 467 kts 27°
2026-04-21 10:36 27.07964 -16.15674 34973 ft 467 kts 27°
2026-04-21 10:37 27.13439 -16.11730 34989 ft 467 kts 27°
2026-04-21 10:37 27.18906 -16.07784 34989 ft 467 kts 27°
2026-04-21 10:38 27.24366 -16.03831 34991 ft 467 kts 27°
2026-04-21 10:38 27.29816 -15.99879 34990 ft 466 kts 27°
2026-04-21 10:39 27.35273 -15.95918 34980 ft 467 kts 27°
2026-04-21 10:39 27.40733 -15.91946 34968 ft 468 kts 27°
2026-04-21 10:40 27.46197 -15.87970 34991 ft 468 kts 27°
2026-04-21 10:40 27.51660 -15.83995 34986 ft 468 kts 28°
2026-04-21 10:41 27.57125 -15.80011 34983 ft 467 kts 28°
2026-04-21 10:41 27.62580 -15.76022 34975 ft 467 kts 28°
2026-04-21 10:42 27.68035 -15.72030 34968 ft 467 kts 28°
2026-04-21 10:42 27.73496 -15.68043 34965 ft 467 kts 27°
2026-04-21 10:43 27.78954 -15.64056 34983 ft 467 kts 28°
2026-04-21 10:43 27.84404 -15.60055 34970 ft 467 kts 28°
2026-04-21 10:44 27.89853 -15.56051 34956 ft 467 kts 28°
2026-04-21 10:44 27.95303 -15.52042 34951 ft 467 kts 28°
2026-04-21 10:45 28.00755 -15.48032 34943 ft 467 kts 28°
2026-04-21 10:45 28.06206 -15.44018 34949 ft 468 kts 28°
2026-04-21 10:46 28.11653 -15.39985 34963 ft 468 kts 29°
2026-04-21 10:46 28.17090 -15.35943 34967 ft 467 kts 29°
2026-04-21 10:47 28.22519 -15.31897 34968 ft 467 kts 29°
2026-04-21 10:47 28.27952 -15.27851 34968 ft 467 kts 29°
2026-04-21 10:48 28.33384 -15.23814 34959 ft 467 kts 29°
2026-04-21 10:48 28.38780 -15.19790 34998 ft 467 kts 29°
2026-04-21 10:49 28.44203 -15.15730 34987 ft 467 kts 29°
2026-04-21 10:49 28.49620 -15.11675 34981 ft 466 kts 29°
2026-04-21 10:50 28.55033 -15.07620 34979 ft 466 kts 29°
2026-04-21 10:50 28.60441 -15.03561 34976 ft 466 kts 29°
2026-04-21 10:51 28.65849 -14.99501 34968 ft 466 kts 29°
2026-04-21 10:51 28.71255 -14.95438 34981 ft 465 kts 29°
2026-04-21 10:52 28.76653 -14.91368 34979 ft 465 kts 30°
2026-04-21 10:52 28.82056 -14.87297 34972 ft 466 kts 30°
2026-04-21 10:53 28.87461 -14.83222 34972 ft 466 kts 30°
2026-04-21 10:53 28.92862 -14.79129 34967 ft 466 kts 30°
2026-04-21 10:54 28.98262 -14.75039 34960 ft 466 kts 30°
2026-04-21 10:54 29.03669 -14.70953 34976 ft 466 kts 30°
2026-04-21 10:55 29.09073 -14.66860 34963 ft 466 kts 30°
2026-04-21 10:55 29.14472 -14.62759 34955 ft 466 kts 30°
2026-04-21 10:56 29.19870 -14.58657 34958 ft 466 kts 30°
2026-04-21 10:56 29.25261 -14.54544 34955 ft 466 kts 30°
2026-04-21 10:57 29.30658 -14.50420 34948 ft 466 kts 30°
2026-04-21 10:57 29.36061 -14.46299 34958 ft 467 kts 30°
2026-04-21 10:58 29.41464 -14.42169 34955 ft 467 kts 30°
2026-04-21 10:58 29.46861 -14.38033 34952 ft 467 kts 30°
2026-04-21 10:59 29.52264 -14.33901 34951 ft 467 kts 30°
2026-04-21 10:59 29.57663 -14.29760 34951 ft 467 kts 30°
2026-04-21 11:00 29.63059 -14.25601 34963 ft 467 kts 30°
2026-04-21 11:00 29.68452 -14.21445 34962 ft 467 kts 31°
2026-04-21 11:01 29.73850 -14.17289 34950 ft 467 kts 30°
2026-04-21 11:01 29.79259 -14.13122 34941 ft 468 kts 30°
2026-04-21 11:02 29.87372 -14.06850 34938 ft 468 kts 31°
2026-04-21 11:02 29.92780 -14.02663 34938 ft 468 kts 30°
2026-04-21 11:03 29.98196 -13.98480 34941 ft 469 kts 31°
2026-04-21 11:03 30.03605 -13.94285 34938 ft 469 kts 31°
2026-04-21 11:04 30.09013 -13.90076 34934 ft 469 kts 31°
2026-04-21 11:04 30.14416 -13.85860 34934 ft 469 kts 31°
2026-04-21 11:05 30.19822 -13.81643 34938 ft 469 kts 31°
2026-04-21 11:05 30.25239 -13.77418 34948 ft 470 kts 31°
2026-04-21 11:06 30.30661 -13.73192 34937 ft 470 kts 31°
2026-04-21 11:06 30.36080 -13.68950 34938 ft 470 kts 31°
2026-04-21 11:07 30.41498 -13.64700 34935 ft 470 kts 31°
2026-04-21 11:07 30.46920 -13.60452 34941 ft 470 kts 31°
2026-04-21 11:08 30.51456 -13.56982 34937 ft 468 kts 26°
2026-04-21 11:08 30.57211 -13.53472 34951 ft 467 kts 24°
2026-04-21 11:09 30.62972 -13.49977 34942 ft 467 kts 24°
2026-04-21 11:09 30.68773 -13.46440 34925 ft 468 kts 24°
2026-04-21 11:10 30.74508 -13.42943 34916 ft 469 kts 24°
2026-04-21 11:10 30.80291 -13.39417 34917 ft 469 kts 24°
2026-04-21 11:11 30.86118 -13.35866 34933 ft 470 kts 24°
2026-04-21 11:11 30.91906 -13.32321 34930 ft 470 kts 24°
2026-04-21 11:12 30.97655 -13.28800 34928 ft 470 kts 24°
2026-04-21 11:12 31.03483 -13.25220 34929 ft 470 kts 24°
2026-04-21 11:13 31.09271 -13.21659 34927 ft 470 kts 24°
2026-04-21 11:13 31.15065 -13.18100 34954 ft 470 kts 24°
2026-04-21 11:14 31.20852 -13.14538 34944 ft 470 kts 24°
2026-04-21 11:14 31.26640 -13.10974 34932 ft 471 kts 24°
2026-04-21 11:15 31.32434 -13.07385 34924 ft 472 kts 24°
2026-04-21 11:15 31.38236 -13.03790 34923 ft 472 kts 24°
2026-04-21 11:16 31.44044 -13.00187 34933 ft 472 kts 24°
2026-04-21 11:16 31.49851 -12.96587 34930 ft 472 kts 24°
2026-04-21 11:17 31.55650 -12.92979 34928 ft 472 kts 24°
2026-04-21 11:17 31.61450 -12.89365 34926 ft 472 kts 24°
2026-04-21 11:18 31.67248 -12.85751 34915 ft 472 kts 24°
2026-04-21 11:18 31.73009 -12.82160 34931 ft 472 kts 24°
2026-04-21 11:19 31.78804 -12.78548 34924 ft 471 kts 24°
2026-04-21 11:19 31.84596 -12.74921 34907 ft 472 kts 25°
2026-04-21 11:20 31.90393 -12.71279 34896 ft 473 kts 25°
2026-04-21 11:20 31.96199 -12.67632 34895 ft 473 kts 25°
2026-04-21 11:21 32.02017 -12.63988 34914 ft 474 kts 25°
2026-04-21 11:21 32.07832 -12.60334 34911 ft 473 kts 25°
2026-04-21 11:22 32.13638 -12.56666 34908 ft 473 kts 25°
2026-04-21 11:22 32.19443 -12.53003 34906 ft 473 kts 25°
2026-04-21 11:23 32.25245 -12.49327 34899 ft 473 kts 25°
2026-04-21 11:23 32.31039 -12.45662 34914 ft 472 kts 25°
2026-04-21 11:24 32.36834 -12.41996 34891 ft 472 kts 25°
2026-04-21 11:24 32.42620 -12.38310 34886 ft 473 kts 25°
2026-04-21 11:25 32.48422 -12.34619 34876 ft 474 kts 25°
2026-04-21 11:25 32.54237 -12.30923 34883 ft 474 kts 25°
2026-04-21 11:26 32.60048 -12.27207 34893 ft 475 kts 25°
2026-04-21 11:26 32.65865 -12.23488 34884 ft 475 kts 25°
2026-04-21 11:27 32.71686 -12.19771 34880 ft 475 kts 25°
2026-04-21 11:27 32.77504 -12.16047 34885 ft 475 kts 25°
2026-04-21 11:28 32.83315 -12.12314 34869 ft 475 kts 25°
2026-04-21 11:28 32.89131 -12.08576 34879 ft 475 kts 25°
2026-04-21 11:29 32.94947 -12.04838 34872 ft 475 kts 25°
2026-04-21 11:29 33.00763 -12.01090 34865 ft 476 kts 26°
2026-04-21 11:30 33.06591 -11.97320 34861 ft 477 kts 26°
2026-04-21 11:30 33.12429 -11.93545 34878 ft 477 kts 26°
2026-04-21 11:31 33.18269 -11.89762 34871 ft 478 kts 26°
2026-04-21 11:31 33.24110 -11.85972 34871 ft 478 kts 26°
2026-04-21 11:32 33.29948 -11.82176 34873 ft 478 kts 26°
2026-04-21 11:32 33.35788 -11.78379 34870 ft 478 kts 26°
2026-04-21 11:33 33.41628 -11.74584 34889 ft 478 kts 26°
2026-04-21 11:33 33.47429 -11.70799 34879 ft 478 kts 26°
2026-04-21 11:34 33.53264 -11.66977 34886 ft 478 kts 26°
2026-04-21 11:34 33.59100 -11.63161 34878 ft 478 kts 26°
2026-04-21 11:35 33.64934 -11.59346 34875 ft 477 kts 26°
2026-04-21 11:35 33.70764 -11.55513 34885 ft 478 kts 26°
2026-04-21 11:36 33.76592 -11.51673 34875 ft 478 kts 26°
2026-04-21 11:36 33.82422 -11.47831 34866 ft 478 kts 26°
2026-04-21 11:37 33.88251 -11.43978 34866 ft 478 kts 26°
2026-04-21 11:37 33.94084 -11.40132 34867 ft 478 kts 26°
2026-04-21 11:38 33.99919 -11.36280 34879 ft 478 kts 26°
2026-04-21 11:38 34.05752 -11.32415 34874 ft 478 kts 26°
2026-04-21 11:39 34.11582 -11.28540 34852 ft 479 kts 26°
2026-04-21 11:39 34.17425 -11.24646 34847 ft 480 kts 26°
2026-04-21 11:40 34.23280 -11.20747 34858 ft 481 kts 26°
2026-04-21 11:40 34.29144 -11.16850 34856 ft 481 kts 26°
2026-04-21 11:41 34.35009 -11.12935 34851 ft 481 kts 26°
2026-04-21 11:41 34.40869 -11.09013 34845 ft 481 kts 26°
2026-04-21 11:42 34.46724 -11.05090 34835 ft 481 kts 26°
2026-04-21 11:42 34.52578 -11.01153 34855 ft 481 kts 26°
2026-04-21 11:43 34.58429 -10.97213 34844 ft 481 kts 26°
2026-04-21 11:43 34.64282 -10.93269 34831 ft 481 kts 27°
2026-04-21 11:44 34.70148 -10.89318 34825 ft 482 kts 27°
2026-04-21 11:44 34.76019 -10.85354 34824 ft 483 kts 27°
2026-04-21 11:45 34.81895 -10.81378 34829 ft 484 kts 27°
2026-04-21 11:45 34.87783 -10.77386 34825 ft 485 kts 27°
2026-04-21 11:46 34.93675 -10.73386 34831 ft 485 kts 27°
2026-04-21 11:46 34.99568 -10.69377 34827 ft 485 kts 27°
2026-04-21 11:47 35.05463 -10.65362 34843 ft 485 kts 27°
2026-04-21 11:47 35.11362 -10.61334 34833 ft 486 kts 27°
2026-04-21 11:48 35.17265 -10.57300 34821 ft 486 kts 27°
2026-04-21 11:48 35.23175 -10.53259 34817 ft 487 kts 28°
2026-04-21 11:49 35.29088 -10.49193 34821 ft 488 kts 28°
2026-04-21 11:49 35.35004 -10.45115 34831 ft 488 kts 28°
2026-04-21 11:50 35.40927 -10.41042 34825 ft 488 kts 28°
2026-04-21 11:50 35.45894 -10.37635 34819 ft 488 kts 28°
2026-04-21 11:51 35.51820 -10.33547 34815 ft 489 kts 28°
2026-04-21 11:51 35.57742 -10.29437 34818 ft 489 kts 28°
2026-04-21 11:52 35.63668 -10.25335 34816 ft 489 kts 28°
2026-04-21 11:52 35.69596 -10.21233 34814 ft 489 kts 28°
2026-04-21 11:53 35.75477 -10.17144 34798 ft 489 kts 28°
2026-04-21 11:53 35.81434 -10.12984 34808 ft 489 kts 28°
2026-04-21 11:54 35.87311 -10.08874 34819 ft 489 kts 28°
2026-04-21 11:54 35.93236 -10.04733 34815 ft 489 kts 28°
2026-04-21 11:55 35.99167 -10.00593 34812 ft 490 kts 28°
2026-04-21 11:55 36.05106 -9.96466 34812 ft 490 kts 28°
2026-04-21 11:56 36.11048 -9.92334 34825 ft 490 kts 28°
2026-04-21 11:56 36.16994 -9.88187 34818 ft 491 kts 28°
2026-04-21 11:57 36.22937 -9.84032 34812 ft 491 kts 28°
2026-04-21 11:57 36.28875 -9.79872 34803 ft 490 kts 29°
2026-04-21 11:58 36.34813 -9.75714 34818 ft 490 kts 29°
2026-04-21 11:58 36.40744 -9.71544 34818 ft 490 kts 29°
2026-04-21 11:59 36.46674 -9.67364 34813 ft 490 kts 29°
2026-04-21 11:59 36.52607 -9.63185 34811 ft 490 kts 29°
2026-04-21 12:00 36.58542 -9.58994 34808 ft 491 kts 29°
2026-04-21 12:00 36.64476 -9.54791 34820 ft 491 kts 30°
2026-04-21 12:01 36.70411 -9.50583 34813 ft 491 kts 30°
2026-04-21 12:01 36.76345 -9.46374 34806 ft 491 kts 30°
2026-04-21 12:02 36.85246 -9.40038 34794 ft 491 kts 30°
2026-04-21 12:03 36.91181 -9.35806 34805 ft 491 kts 30°
2026-04-21 12:03 36.97115 -9.31564 34800 ft 491 kts 30°
2026-04-21 12:04 37.03052 -9.27317 34798 ft 492 kts 30°
2026-04-21 12:04 37.08987 -9.23062 34797 ft 492 kts 30°
2026-04-21 12:05 37.14923 -9.18798 34813 ft 492 kts 30°
2026-04-21 12:05 37.20858 -9.14526 34800 ft 492 kts 30°
2026-04-21 12:06 37.24493 -9.11896 34796 ft 492 kts 30°